BAW51K ENBR-EGKK

Flight info

Callsign BAW51K
Flight time N/A
Altitude 39000
Route TUXIL DCT ZOL DCT ATNAK/N0475F400 DCT TIPAN DCT WECOW DCT BINBO DCT AKOKO N866 BUKUT P7 BARMI
Aircraft A35K/H-SDE2E3GHIJ3J4J5LM1ORWXY/LB1D1

Departure

Time 2026-04-29 10:23
Airport Bergen Airport, Flesland (ENBR)

Arrival

Time N/A
Airport London Gatwick Airport (EGKK)
Time Latitude Longitude Altitude Speed Heading
2026-04-29 09:50 60.29644 5.22251 156 ft 0 kts 81°
2026-04-29 09:54 60.28964 5.22571 168 ft 0 kts 144°
2026-04-29 10:01 60.28964 5.22570 168 ft 0 kts 144°
2026-04-29 10:09 60.28965 5.22568 168 ft 2 kts 144°
2026-04-29 10:10 60.28986 5.22539 168 ft 4 kts 149°
2026-04-29 10:10 60.29010 5.22514 168 ft 4 kts 162°
2026-04-29 10:10 60.29034 5.22508 168 ft 4 kts 212°
2026-04-29 10:10 60.29040 5.22520 168 ft 0 kts 262°
2026-04-29 10:15 60.29040 5.22516 168 ft 1 kts 262°
2026-04-29 10:16 60.29038 5.22480 168 ft 4 kts 262°
2026-04-29 10:16 60.29037 5.22437 168 ft 5 kts 273°
2026-04-29 10:16 60.29060 5.22367 169 ft 5 kts 311°
2026-04-29 10:16 60.29079 5.22297 169 ft 6 kts 302°
2026-04-29 10:17 60.29121 5.22231 169 ft 11 kts 335°
2026-04-29 10:17 60.29222 5.22180 170 ft 17 kts 349°
2026-04-29 10:17 60.29336 5.22135 171 ft 15 kts 346°
2026-04-29 10:17 60.29384 5.21980 172 ft 14 kts 268°
2026-04-29 10:18 60.29333 5.21831 171 ft 14 kts 188°
2026-04-29 10:18 60.29222 5.21854 170 ft 17 kts 172°
2026-04-29 10:18 60.29105 5.21901 170 ft 18 kts 169°
2026-04-29 10:18 60.28969 5.21941 168 ft 21 kts 172°
2026-04-29 10:19 60.28818 5.21992 166 ft 23 kts 171°
2026-04-29 10:19 60.28654 5.22048 165 ft 25 kts 170°
2026-04-29 10:19 60.28482 5.22106 166 ft 26 kts 171°
2026-04-29 10:19 60.28338 5.22161 164 ft 17 kts 162°
2026-04-29 10:20 60.28285 5.22325 162 ft 16 kts 92°
2026-04-29 10:20 60.28268 5.22459 162 ft 10 kts 137°
2026-04-29 10:20 60.28196 5.22519 161 ft 13 kts 163°
2026-04-29 10:20 60.28100 5.22529 160 ft 15 kts 199°
2026-04-29 10:21 60.28054 5.22348 158 ft 17 kts 269°
2026-04-29 10:21 60.28132 5.22224 159 ft 14 kts 348°
2026-04-29 10:21 60.28148 5.22218 159 ft 0 kts 349°
2026-04-29 10:22 60.28151 5.22217 159 ft 1 kts 349°
2026-04-29 10:22 60.28174 5.22208 160 ft 12 kts 349°
2026-04-29 10:22 60.28475 5.22105 166 ft 77 kts 351°
2026-04-29 10:23 60.29203 5.21861 170 ft 134 kts 350°
2026-04-29 10:23 60.30277 5.21516 295 ft 173 kts 349°
2026-04-29 10:23 60.31485 5.21120 911 ft 172 kts 349°
2026-04-29 10:23 60.32635 5.20737 1758 ft 172 kts 349°
2026-04-29 10:24 60.33899 5.20278 2237 ft 197 kts 348°
2026-04-29 10:24 60.35332 5.19769 2817 ft 216 kts 351°
2026-04-29 10:24 60.36881 5.19262 3267 ft 237 kts 351°
2026-04-29 10:24 60.38551 5.18729 3939 ft 246 kts 351°
2026-04-29 10:25 60.40256 5.18188 4653 ft 250 kts 351°
2026-04-29 10:25 60.41988 5.17649 5366 ft 255 kts 350°
2026-04-29 10:25 60.43723 5.17051 6130 ft 257 kts 348°
2026-04-29 10:25 60.45481 5.16360 6922 ft 258 kts 345°
2026-04-29 10:26 60.47122 5.14911 7628 ft 259 kts 324°
2026-04-29 10:26 60.48299 5.12167 8269 ft 263 kts 298°
2026-04-29 10:26 60.48750 5.08558 8915 ft 270 kts 273°
2026-04-29 10:26 60.48504 5.04736 9597 ft 278 kts 257°
2026-04-29 10:27 60.46111 4.98515 10777 ft 300 kts 211°
2026-04-29 10:27 60.44067 4.97375 11020 ft 322 kts 183°
2026-04-29 10:27 60.41779 4.97702 11325 ft 339 kts 174°
2026-04-29 10:28 60.39380 4.98324 11611 ft 355 kts 173°
2026-04-29 10:28 60.36883 4.98949 11887 ft 369 kts 174°
2026-04-29 10:28 60.34282 4.99549 12168 ft 383 kts 174°
2026-04-29 10:28 60.31590 5.00147 12498 ft 394 kts 174°
2026-04-29 10:29 60.28846 5.00736 12936 ft 400 kts 174°
2026-04-29 10:29 60.26075 5.01572 13405 ft 405 kts 170°
2026-04-29 10:29 60.23336 5.02645 13897 ft 410 kts 169°
2026-04-29 10:29 60.20522 5.03779 14378 ft 414 kts 169°
2026-04-29 10:30 60.17682 5.04923 14817 ft 418 kts 168°
2026-04-29 10:30 60.14881 5.06565 15279 ft 421 kts 158°
2026-04-29 10:30 60.12169 5.08830 15760 ft 424 kts 155°
2026-04-29 10:30 60.09456 5.11206 16216 ft 427 kts 155°
2026-04-29 10:31 60.06718 5.13593 16704 ft 430 kts 155°
2026-04-29 10:31 60.03997 5.15945 17137 ft 434 kts 155°
2026-04-29 10:31 60.01218 5.18331 17576 ft 437 kts 155°
2026-04-29 10:31 59.98419 5.20726 18041 ft 440 kts 155°
2026-04-29 10:32 59.95591 5.23138 18506 ft 443 kts 155°
2026-04-29 10:32 59.92739 5.25565 18925 ft 447 kts 155°
2026-04-29 10:32 59.89871 5.28000 19309 ft 449 kts 155°
2026-04-29 10:32 59.86999 5.30432 19715 ft 452 kts 155°
2026-04-29 10:33 59.84085 5.32897 20119 ft 454 kts 155°
2026-04-29 10:33 59.81193 5.35261 20483 ft 457 kts 159°
2026-04-29 10:33 59.78081 5.36702 20876 ft 461 kts 172°
2026-04-29 10:33 59.74885 5.37295 21265 ft 464 kts 175°
2026-04-29 10:34 59.71657 5.37778 21632 ft 466 kts 175°
2026-04-29 10:34 59.68410 5.38272 22006 ft 469 kts 175°
2026-04-29 10:34 59.65155 5.38792 22376 ft 471 kts 174°
2026-04-29 10:34 59.61890 5.39512 22758 ft 473 kts 172°
2026-04-29 10:35 59.58614 5.40348 23135 ft 476 kts 172°
2026-04-29 10:35 59.55327 5.41196 23498 ft 479 kts 172°
2026-04-29 10:35 59.52054 5.42034 23865 ft 481 kts 172°
2026-04-29 10:35 59.48726 5.42879 24219 ft 484 kts 172°
2026-04-29 10:36 59.45380 5.43725 24524 ft 486 kts 172°
2026-04-29 10:36 59.42009 5.44574 24834 ft 488 kts 172°
2026-04-29 10:36 59.38641 5.45494 25141 ft 491 kts 170°
2026-04-29 10:36 59.35274 5.46617 25454 ft 493 kts 168°
2026-04-29 10:37 59.31891 5.47866 25769 ft 495 kts 167°
2026-04-29 10:37 59.28550 5.49141 26082 ft 497 kts 167°
2026-04-29 10:37 59.25138 5.50443 26406 ft 500 kts 167°
2026-04-29 10:37 59.21722 5.51728 26731 ft 502 kts 167°
2026-04-29 10:38 59.18287 5.52999 27041 ft 505 kts 168°
2026-04-29 10:38 59.14826 5.54260 27373 ft 507 kts 168°
2026-04-29 10:38 59.11341 5.55518 27685 ft 510 kts 168°
2026-04-29 10:38 59.07839 5.56774 28024 ft 512 kts 168°
2026-04-29 10:39 59.04331 5.58029 28340 ft 515 kts 168°
2026-04-29 10:39 59.00796 5.59291 28666 ft 517 kts 168°
2026-04-29 10:39 58.97248 5.60557 28990 ft 520 kts 168°
2026-04-29 10:39 58.93728 5.61812 29333 ft 522 kts 168°
2026-04-29 10:40 58.90133 5.62930 29631 ft 527 kts 172°
2026-04-29 10:40 58.86455 5.63198 29925 ft 531 kts 181°
2026-04-29 10:40 58.82780 5.62448 30255 ft 534 kts 188°
2026-04-29 10:40 58.79105 5.61288 30540 ft 537 kts 190°
2026-04-29 10:41 58.75419 5.59956 30865 ft 538 kts 191°
2026-04-29 10:41 58.71752 5.58565 31257 ft 537 kts 191°
2026-04-29 10:41 58.68085 5.57173 31652 ft 537 kts 191°
2026-04-29 10:41 58.64468 5.55825 32039 ft 536 kts 191°
2026-04-29 10:42 58.60808 5.54489 32395 ft 536 kts 191°
2026-04-29 10:42 58.57138 5.53171 32754 ft 536 kts 190°
2026-04-29 10:42 58.53466 5.51869 33150 ft 535 kts 190°
2026-04-29 10:42 58.49807 5.50580 33553 ft 534 kts 190°
2026-04-29 10:43 58.46155 5.49298 33901 ft 535 kts 190°
2026-04-29 10:43 58.42493 5.48016 34265 ft 534 kts 190°
2026-04-29 10:43 58.38884 5.46754 34628 ft 533 kts 190°
2026-04-29 10:43 58.35194 5.45465 34971 ft 533 kts 190°
2026-04-29 10:44 58.31597 5.44210 35290 ft 532 kts 190°
2026-04-29 10:44 58.27963 5.42945 35602 ft 532 kts 190°
2026-04-29 10:44 58.24320 5.41679 35932 ft 531 kts 190°
2026-04-29 10:44 58.20695 5.40422 36254 ft 530 kts 190°
2026-04-29 10:45 58.17073 5.39168 36533 ft 530 kts 189°
2026-04-29 10:45 58.13444 5.37915 36799 ft 530 kts 189°
2026-04-29 10:45 58.09816 5.36665 37091 ft 529 kts 189°
2026-04-29 10:45 58.06201 5.35422 37383 ft 529 kts 189°
2026-04-29 10:46 58.02620 5.34193 37627 ft 529 kts 189°
2026-04-29 10:46 57.99007 5.32955 37878 ft 529 kts 189°
2026-04-29 10:46 57.95387 5.31718 38137 ft 528 kts 189°
2026-04-29 10:46 57.91776 5.30486 38411 ft 527 kts 189°
2026-04-29 10:47 57.88169 5.29258 38631 ft 527 kts 189°
2026-04-29 10:47 57.84559 5.28032 38848 ft 527 kts 189°
2026-04-29 10:47 57.80943 5.26806 38985 ft 529 kts 189°
2026-04-29 10:48 57.73704 5.24360 38985 ft 534 kts 189°
2026-04-29 10:48 57.66405 5.21903 38994 ft 533 kts 189°
2026-04-29 10:49 57.59113 5.19458 38993 ft 533 kts 189°
2026-04-29 10:49 57.51814 5.17021 38994 ft 533 kts 189°
2026-04-29 10:50 57.44550 5.14605 38993 ft 533 kts 189°
2026-04-29 10:50 57.37244 5.12186 38995 ft 533 kts 189°
2026-04-29 10:51 57.29944 5.09778 38999 ft 533 kts 189°
2026-04-29 10:51 57.22633 5.07376 39000 ft 533 kts 189°
2026-04-29 10:52 57.15321 5.04984 38996 ft 533 kts 189°